Wind_Speed
23 24 24 25 26 28 30 32 36 38 38 38 41 43 43 41 40 39 38 34 29 30 35 38 36 33 33 35 35 35 35 36 38 39 39 39 39 39 40 41 42 43 45 46 46 46 47 48 48 48 48 49 50 52 52 52 53 54 53 53 53 54 56 57 56 56 57 58 58 59 60 60 61 61 63 63 65 66 66 66 67 68 68 69 70 72 73 74
23 24 24 24 26 28 30 32 36 39 39 37 37 41 43 44 44 44 44 41 37 36 37 39 41 39 37 37 36 36 37 38 39 39 40 41 41 41 42 43 43 45 46 47 49 49 50 50 51 51 52 52 53 54 55 55 56 56 56 55 56 57 58 59 59 60 61 61 62 62 63 64 64 65 66 67 68 69 70 70 71 71 72 73 73 74 75 76
23 23 23 24 26 28 30 32 36 40 41 38 37 38 40 44 46 47 47 46 44 44 43 42 44 44 42 40 39 38 38 39 40 40 40 41 43 43 44 45 46 47 48 50 51 52 54 54 55 56 56 57 57 57 58 58 59 59 59 58 59 60 61 61 62 63 64 64 65 66 67 67 68 68 69 70 71 72 73 74 74 75 75 75 76 77 78 79
23 22 23 24 25 27 29 32 36 41 44 41 39 36 36 40 43 44 46 46 45 45 45 46 45 45 45 45 43 42 41 41 42 42 43 43 44 45 46 47 48 49 50 52 53 55 56 57 58 59 60 60 60 60 60 60 61 61 61 61 63 63 63 63 64 65 65 66 68 69 70 71 71 72 72 73 74 75 76 77 78 78 79 79 79 80 80 81
22 22 23 24 25 26 28 31 35 41 46 46 42 38 35 35 36 39 41 43 44 44 45 46 47 47 47 47 47 46 46 46 46 46 46 46 47 48 49 49 50 51 52 53 54 55 57 58 59 60 61 62 62 62 61 61 62 62 62 63 64 65 65 65 66 66 68 69 70 71 73 74 75 75 75 76 77 78 79 80 81 82 83 83 84 84 85 85
21 22 22 23 24 25 26 29 33 39 46 49 47 43 38 33 31 33 36 39 42 44 45 47 47 48 49 50 50 50 49 48 48 48 48 48 49 50 51 52 53 54 54 54 54 55 56 57 58 59 61 63 63 63 62 62 62 62 63 64 65 66 66 67 68 69 70 71 72 73 74 76 78 79 79 79 79 80 80 82 83 84 86 87 88 89 90 90
21 21 22 22 23 24 26 28 31 36 44 50 52 49 44 39 34 31 32 35 38 40 42 44 45 47 48 48 48 49 49 49 50 50 50 51 52 52 53 54 55 57 57 57 58 59 59 59 61 61 63 64 65 64 64 64 64 64 64 64 65 66 67 68 69 70 71 72 73 74 75 77 79 81 82 82 82 82 83 83 85 86 88 89 90 92 93 93
21 21 21 22 22 23 25 27 29 33 39 47 53 54 50 45 41 37 34 33 35 37 38 39 40 43 45 46 46 47 47 48 49 51 52 52 52 52 53 54 55 56 57 58 59 60 61 61 62 62 63 64 65 65 65 66 66 67 67 67 67 67 68 68 69 70 71 72 73 74 76 77 78 80 82 83 84 84 85 86 87 88 89 90 91 92 93 94
20 20 20 20 20 21 23 25 27 30 34 40 48 54 55 51 47 45 42 39 38 37 38 38 38 39 40 42 44 46 47 49 50 51 52 52 52 53 54 55 56 56 57 59 60 61 62 63 64 64 65 65 65 66 67 68 68 69 70 70 71 71 71 72 73 74 75 77 78 79 79 80 81 81 82 83 84 85 87 88 89 89 90 91 92 92 93 94
19 19 18 18 19 20 21 23 25 28 30 35 41 48 54 56 53 50 48 48 46 44 43 43 43 43 44 44 44 45 46 48 50 51 51 51 51 52 53 54 55 56 58 59 61 63 65 66 66 67 67 67 67 67 68 69 70 70 71 72 73 73 75 76 77 78 80 81 83 84 85 86 87 87 87 87 88 90 91 92 93 94 95 95 95 96 97 99
17 16 16 16 17 18 19 21 23 25 28 31 35 40 47 54 57 55 53 52 51 51 51 49 49 49 50 51 51 51 52 52 53 54 54 54 55 54 55 55 56 57 59 60 62 64 66 67 68 69 69 69 69 70 71 72 72 73 74 76 76 77 78 80 81 82 84 85 86 88 89 91 92 92 93 94 95 96 97 98 99 100 101 101 102 103 104 106
15 14 14 14 15 16 17 19 21 23 26 28 31 35 39 46 53 57 58 56 54 54 55 55 54 53 53 55 56 57 58 59 60 61 62 62 62 62 62 62 63 64 65 67 68 69 71 72 73 74 74 74 75 75 76 78 78 79 80 81 82 84 85 86 87 89 90 91 92 94 95 96 97 97 99 100 101 102 103 104 105 106 107 108 109 110 112 114
13 12 13 13 14 15 16 18 20 22 24 26 29 31 35 39 44 51 56 59 59 58 58 58 59 59 58 58 59 60 60 62 63 64 65 66 67 68 69 69 70 72 74 75 76 77 78 79 80 81 81 81 81 82 83 84 84 85 86 87 88 89 90 91 93 94 95 96 98 99 101 102 102 103 105 106 107 108 109 109 110 110 111 112 113 114 114 115
12 12 12 13 14 15 16 18 19 21 23 25 27 30 32 35 38 43 47 52 56 59 60 61 62 62 63 62 63 63 64 64 65 65 66 67 68 69 71 72 73 75 76 77 79 80 82 83 85 86 86 87 87 87 88 89 90 90 91 92 93 94 95 96 98 99 100 101 102 104 105 106 106 106 107 108 108 109 109 110 110 110 111 111 112 113 113 114
11 11 11 12 14 15 16 17 19 20 22 24 26 29 31 34 36 39 41 44 48 51 54 57 59 61 62 64 65 66 66 67 68 69 70 71 72 72 74 75 76 77 78 79 80 82 83 85 86 88 89 89 90 90 91 91 92 93 93 94 95 96 96 97 98 99 100 100 101 102 102 102 102 102 103 103 103 104 104 105 105 106 106 107 108 108 109 110
11 11 11 12 14 15 15 16 17 19 21 23 25 27 29 31 33 36 38 40 43 45 48 50 52 54 56 59 61 63 64 65 66 68 69 70 71 72 73 75 76 77 78 79 80 81 82 83 84 86 87 87 87 87 88 87 88 88 89 89 90 90 90 91 92 92 93 94 94 94 94 94 95 95 95 96 96 96 97 97 98 98 99 100 101 102 103 104
12 12 12 14 14 15 15 16 18 19 20 21 23 24 26 28 30 32 34 36 38 41 43 45 47 49 51 53 55 57 58 60 62 63 64 65 66 67 68 69 70 71 72 73 74 75 76 77 78 79 80 81 81 81 81 81 81 81 82 82 82 83 83 83 84 85 85 86 86 86 86 86 87 87 87 87 88 88 89 89 90 91 91 92 93 94 96 97
13 13 14 15 16 16 17 18 19 20 20 20 21 22 23 24 26 27 29 31 33 35 37 39 41 43 45 47 49 51 52 54 56 57 58 60 61 62 63 64 65 66 67 68 69 70 70 72 72 74 75 75 76 76 76 75 75 75 75 75 75 75 75 75 75 76 77 77 77 77 77 78 79 80 80 80 81 82 82 83 84 85 86 87 88 89 91 92
13 14 16 16 17 17 18 19 20 20 20 19 19 20 20 21 23 24 25 27 29 30 32 34 36 37 39 41 43 45 47 49 50 52 54 55 57 58 59 60 61 62 63 64 65 66 67 68 68 69 70 70 70 70 70 69 68 68 68 68 68 68 67 67 68 69 70 70 71 71 72 73 74 75 75 76 76 77 78 79 80 81 82 84 85 86 87 89
14 15 16 17 18 19 19 19 19 19 18 18 18 18 19 20 21 22 24 25 27 28 30 32 34 35 37 39 41 43 45 47 48 50 52 53 54 55 57 58 58 59 60 60 61 62 62 62 62 62 63 63 63 63 62 62 61 61 61 62 62 62 63 63 63 64 65 66 67 68 68 69 71 72 72 73 74 74 76 77 78 79 80 81 83 84 85 87
15 16 17 18 19 19 19 18 17 17 17 17 17 18 19 20 21 23 25 26 28 30 32 34 36 37 39 41 42 44 45 47 48 49 51 51 52 52 53 53 53 53 54 54 54 55 55 55 55 56 56 56 56 56 56 56 56 57 57 58 58 59 60 60 61 61 62 63 65 65 66 67 69 70 71 72 72 73 75 76 77 78 79 80 82 83 84 86
15 16 17 18 18 18 17 16 16 16 16 17 18 19 20 22 24 26 27 29 31 33 35 36 38 40 41 43 44 44 45 46 46 47 47 47 46 47 47 47 47 48 48 49 49 50 50 50 50 51 51 51 52 52 53 53 54 54 55 56 57 58 58 59 60 61 62 63 64 65 66 67 68 69 70 71 72 73 75 76 77 78 80 81 82 83 84 85
15 16 16 17 17 16 16 16 16 16 17 18 19 20 22 24 27 29 31 32 34 35 37 38 40 41 42 44 45 44 44 43 42 42 42 42 42 43 43 44 44 44 45 45 45 45 45 46 46 47 47 48 49 50 50 51 52 53 54 55 56 58 58 59 60 61 62 63 64 65 67 68 68 69 70 71 73 74 75 76 78 79 80 81 82 83 84 85
14 15 15 16 16 16 16 16 16 17 18 19 21 23 25 27 29 31 33 34 36 37 39 40 41 42 43 43 42 41 39 39 39 39 39 40 40 41 41 41 41 41 41 41 41 42 42 43 44 45 46 47 48 49 49 50 51 52 54 55 56 58 59 60 61 62 63 64 65 66 68 69 69 70 71 73 75 75 76 78 79 79 80 81 82 82 83 84
14 15 16 16 16 16 16 16 17 18 20 22 23 26 28 30 31 33 34 36 38 39 41 42 43 42 41 39 37 36 36 37 38 38 38 38 38 38 38 38 37 37 38 38 39 40 41 42 43 44 45 46 47 49 50 51 52 53 54 55 57 58 59 60 61 62 64 65 67 68 69 71 71 72 74 75 76 77 77 77 78 78 78 79 79 80 80 81
14 15 16 16 16 16 16 17 18 20 22 24 27 29 30 32 33 34 36 38 39 41 42 42 41 39 37 36 35 35 35 36 35 35 35 35 35 35 35 35 35 35 36 37 38 39 40 41 42 44 45 47 48 50 51 52 53 54 55 56 57 58 60 61 62 64 65 67 69 70 71 73 74 73 74 75 75 75 74 74 74 74 74 74 75 76 77 78
14 15 15 15 15 16 17 18 20 22 25 27 29 31 32 34 35 36 38 40 41 42 42 40 37 35 34 34 34 34 34 34 34 34 33 33 33 33 33 34 34 35 36 37 38 39 40 41 43 45 46 48 49 50 51 51 52 53 55 56 58 59 61 63 64 65 67 69 70 71 72 73 74 73 72 72 71 70 70 69 69 69 70 71 72 73 73 74
14 15 15 15 16 16 18 20 22 25 27 29 31 33 34 35 37 38 39 41 42 41 39 36 34 34 34 34 33 33 33 32 32 32 31 31 31 32 33 33 34 35 36 37 38 39 41 42 44 45 46 47 48 49 50 50 52 53 55 57 59 61 63 65 66 67 68 69 70 70 70 71 71 69 68 67 66 65 65 65 65 66 67 68 69 70 71 72
14 14 14 15 16 17 19 22 25 27 29 31 33 35 36 37 38 39 40 42 41 38 35 34 33 33 33 33 32 32 31 31 30 30 30 30 31 31 32 33 34 35 36 37 39 40 42 43 44 45 45 46 47 48 50 52 53 55 57 60 62 63 65 66 67 68 68 68 68 67 65 65 66 64 62 62 61 61 61 62 62 63 65 66 68 69 70 71
13 14 15 16 17 19 21 24 27 29 31 33 35 36 37 38 39 40 41 41 39 35 33 33 33 32 32 32 31 31 30 30 29 29 30 30 31 32 32 33 34 35 37 38 40 41 42 43 44 44 46 47 49 50 52 54 57 58 60 62 64 65 66 66 66 66 65 65 64 63 60 59 60 60 59 58 58 59 59 60 61 63 64 66 67 68 69 70
13 14 15 17 18 21 24 26 29 31 33 35 36 37 38 39 40 41 41 38 35 33 33 32 32 31 31 30 30 30 30 30 30 30 30 31 32 32 33 33 35 36 38 39 40 41 42 43 44 46 48 50 52 54 56 58 59 61 62 63 63 63 63 63 62 62 61 60 59 59 57 55 55 56 57 57 57 58 58 59 62 63 64 66 66 67 68 69
13 15 16 18 20 23 26 28 31 33 35 36 37 38 39 39 40 41 39 35 33 32 32 31 30 30 29 29 29 28 29 29 30 30 31 31 31 32 33 34 35 37 38 40 41 42 43 44 46 48 51 53 55 57 58 59 60 61 61 60 60 59 58 58 58 57 57 56 55 54 54 52 52 54 55 56 58 58 59 59 61 63 64 65 66 66 66 67
14 16 18 20 23 25 27 30 32 34 36 37 37 38 39 40 41 39 36 33 32 32 31 30 29 28 28 28 28 28 29 29 30 30 31 31 31 32 34 35 37 38 40 41 42 43 44 46 49 51 54 56 57 58 58 58 58 58 57 56 55 55 54 54 54 54 54 55 54 53 53 51 51 53 54 56 57 59 60 59 59 61 62 63 64 65 65 65
16 17 19 22 24 27 29 32 34 35 36 37 38 39 40 41 40 36 33 32 32 31 30 29 28 27 27 27 28 29 30 30 30 31 31 31 32 33 35 37 39 40 41 42 43 45 47 49 51 53 55 56 56 56 56 55 55 55 54 53 53 52 51 51 51 52 53 56 57 56 55 52 49 51 54 54 56 59 60 60 60 60 61 62 63 64 64 65
17 19 21 24 26 29 32 34 35 36 37 37 38 39 40 40 37 34 32 31 30 30 29 28 27 27 27 27 28 29 30 30 30 30 30 32 33 35 37 39 41 42 43 44 45 47 50 52 53 54 54 54 53 53 53 52 52 52 51 50 50 50 49 49 50 50 50 52 57 58 59 58 52 49 54 55 55 58 60 61 61 61 62 63 64 64 65 66
18 20 23 25 28 31 33 35 36 36 37 37 38 40 40 38 34 32 31 30 30 29 28 27 27 27 27 28 29 30 30 30 30 30 30 32 34 36 38 40 42 44 45 46 48 50 52 52 52 52 51 51 50 50 50 49 49 49 48 48 48 48 48 48 48 48 47 48 52 56 58 62 57 50 54 56 54 57 60 62 62 62 63 64 64 65 66 67
19 22 24 27 30 32 34 35 36 37 37 38 39 40 39 35 32 30 30 30 29 28 27 27 27 27 28 29 30 30 30 30 30 30 31 33 35 38 40 42 44 45 47 49 50 51 51 51 50 49 49 48 48 48 47 47 47 46 46 46 46 47 48 48 46 46 46 44 46 50 54 61 59 50 53 57 55 56 60 62 63 63 64 65 65 66 66 67
21 23 27 30 32 33 35 36 36 37 37 38 39 40 37 33 30 30 30 29 28 27 27 27 27 28 29 30 30 30 30 30 31 31 33 35 37 40 42 43 45 47 49 51 51 50 50 49 48 48 47 47 46 46 46 45 45 44 44 44 45 45 46 47 46 44 44 42 41 43 49 60 60 49 51 57 55 55 59 63 64 64 65 66 66 67 67 67
23 26 29 31 33 34 35 36 36 37 38 39 40 38 35 31 30 30 29 29 28 27 26 26 27 28 29 30 30 30 30 30 31 32 34 36 39 41 43 45 47 49 50 50 49 49 48 47 47 46 47 46 46 46 45 45 44 43 43 43 43 45 45 47 47 45 44 42 40 38 43 58 61 49 50 56 55 55 58 62 65 65 66 67 66 66 67 67
25 28 31 32 34 35 36 36 37 38 39 40 40 37 32 30 30 30 29 28 27 26 26 26 27 28 29 30 30 30 30 31 32 33 36 38 41 43 45 48 49 50 50 48 47 47 46 46 46 46 46 45 45 45 45 45 44 43 43 43 44 45 46 47 48 47 46 44 43 38 40 55 62 52 50 55 55 55 58 60 63 64 65 66 66 66 66 66
27 30 32 33 35 36 36 37 37 38 39 40 39 35 31 30 30 30 29 28 27 26 26 26 27 28 29 30 30 30 30 31 33 34 37 40 43 45 47 49 49 48 47 46 46 46 46 46 45 45 45 45 45 45 44 44 43 43 43 43 43 45 45 46 46 47 47 47 46 42 40 50 61 58 55 56 56 56 58 60 61 63 65 65 65 66 66 66
30 31 32 34 36 36 37 37 38 39 40 40 37 32 30 30 30 29 28 27 26 26 26 26 27 28 29 29 30 30 30 32 33 36 38 41 44 46 47 47 46 46 45 45 46 46 46 46 45 44 44 44 43 43 43 43 43 43 43 42 43 43 44 45 44 45 46 46 46 45 41 45 55 57 56 56 56 56 58 59 60 62 64 65 65 66 66 67
31 32 33 35 36 37 37 37 39 40 40 39 35 31 30 30 29 29 28 27 26 26 25 26 27 28 29 29 29 30 31 32 34 37 40 43 45 46 46 45 45 45 46 46 46 46 45 45 44 44 43 43 43 43 43 43 43 43 43 43 43 43 44 44 44 44 44 45 47 45 41 44 50 52 53 54 54 56 56 57 57 58 60 61 62 63 64 65
32 33 35 36 36 37 38 39 40 40 40 38 33 30 30 30 29 29 28 26 25 25 25 26 27 28 29 29 29 30 31 33 36 38 41 43 44 44 44 44 45 46 46 45 45 44 43 43 42 42 43 43 43 44 43 43 43 43 44 44 44 45 45 44 44 44 45 47 50 47 42 47 53 53 54 55 54 55 57 57 57 56 56 57 57 58 60 62
32 34 36 36 37 38 38 39 40 41 40 36 32 30 30 30 29 28 27 26 25 25 25 26 27 28 28 28 29 30 31 34 37 39 41 42 42 42 43 43 43 43 43 43 43 43 43 42 41 41 42 43 43 44 45 45 45 45 46 47 47 49 51 49 45 45 47 50 55 54 48 50 57 60 61 62 60 60 63 63 62 60 58 58 58 59 61 62
34 35 36 37 37 38 38 39 40 41 39 34 31 31 31 30 29 28 27 26 25 25 25 26 27 28 28 28 29 30 32 34 37 39 40 40 41 41 41 41 41 41 41 41 42 43 44 44 44 43 43 44 44 45 46 47 48 49 50 51 52 53 56 57 53 50 52 54 58 62 59 56 60 65 68 69 69 69 71 72 70 68 65 63 62 63 64 65
34 36 36 37 37 38 39 40 42 41 38 33 31 31 31 30 29 29 27 26 25 25 25 26 27 28 28 28 29 30 32 35 37 38 39 39 39 39 39 39 39 40 40 40 42 43 45 46 47 47 47 47 48 47 48 50 51 53 54 56 57 58 60 63 62 57 58 60 61 65 67 65 64 67 70 72 73 74 75 77 76 73 71 69 67 66 67 67
35 35 36 37 38 39 40 41 42 41 36 33 32 31 31 30 30 29 28 27 26 26 26 27 27 28 28 28 29 31 33 35 36 37 37 37 38 38 38 39 39 40 41 41 42 44 45 47 50 51 51 51 53 52 51 52 54 57 59 60 62 63 64 67 68 65 64 66 67 68 70 72 71 70 72 75 76 77 78 80 79 77 76 74 71 70 70 70
35 36 37 37 38 39 40 42 42 40 35 32 32 31 31 30 30 29 28 27 26 26 26 27 27 27 28 28 29 31 33 35 35 36 36 36 37 37 39 40 40 41 42 42 44 45 46 48 50 53 55 55 57 58 57 56 57 59 63 64 65 67 68 69 71 71 69 70 71 71 72 74 75 75 75 77 79 80 81 82 82 81 80 78 76 74 73 72
35 36 37 38 39 40 41 43 43 39 34 32 32 32 31 31 30 30 29 28 27 27 26 27 27 27 28 28 29 31 32 33 34 35 35 36 37 37 39 40 42 43 43 44 45 46 47 48 50 53 56 57 58 61 62 62 61 61 64 67 68 69 71 72 73 75 74 73 73 75 75 75 76 78 78 79 81 82 83 85 85 84 84 82 79 77 75 74
35 36 37 38 39 40 42 43 42 38 34 32 32 33 32 31 31 30 29 28 27 27 27 27 28 27 28 29 30 31 32 33 34 34 35 36 37 38 39 40 42 43 44 45 46 46 47 49 50 51 54 57 58 60 63 65 64 64 64 67 69 70 71 73 74 77 77 76 75 76 77 77 77 78 78 80 82 83 84 87 87 86 86 85 83 80 78 77
35 36 37 38 39 41 43 44 43 38 34 32 33 33 33 32 31 31 30 29 28 28 28 28 28 28 28 29 30 32 32 33 33 35 36 36 37 39 40 40 41 43 44 45 47 48 48 49 50 51 53 56 58 59 61 64 65 64 65 66 68 69 71 73 74 77 79 77 76 77 78 79 79 79 78 79 81 83 85 87 89 88 88 88 86 83 80 79
Wind_Direction
232 232 231 229 228 226 224 222 217 212 212 222 224 223 223 224 224 224 229 235 237 242 246 250 249 246 244 242 243 249 254 258 260 261 258 255 255 257 260 262 263 264 265 266 264 262 260 259 259 259 259 260 261 261 262 261 261 261 261 260 260 260 259 259 258 258 257 257 258 258 259 259 259 259 259 259 259 259 258 258 258 258 257 258 258 259 260 260
232 231 231 230 228 227 225 222 217 212 211 217 223 225 225 224 225 228 232 235 236 240 246 252 256 256 253 249 248 249 253 257 260 263 265 264 262 261 260 261 262 263 264 266 267 266 264 263 262 262 262 262 263 263 264 263 263 263 263 262 262 262 262 262 262 261 260 260 259 259 259 259 259 259 259 259 259 260 260 260 259 259 258 258 258 258 258 259
232 232 231 230 229 226 225 223 218 213 210 215 221 225 229 229 228 231 233 236 239 244 249 253 257 261 260 257 255 253 254 255 256 257 260 263 265 266 265 264 264 265 265 265 266 266 266 266 265 265 265 264 264 264 265 265 265 265 265 265 264 264 264 264 264 264 263 262 262 261 260 260 259 259 259 259 259 260 260 260 260 260 260 260 260 260 260 260
233 233 232 231 229 227 224 222 220 215 211 214 219 223 233 237 235 235 237 240 242 245 249 252 255 258 260 261 260 258 257 257 256 255 256 258 260 263 264 265 266 267 267 268 268 268 268 268 268 268 267 267 266 265 264 265 266 266 266 266 265 265 265 265 265 264 264 263 262 262 261 260 260 260 260 260 260 260 260 260 260 260 260 260 261 261 261 261
233 233 233 232 231 229 225 223 221 217 214 214 218 221 231 241 244 242 241 243 246 247 248 250 252 254 256 259 260 261 262 262 260 258 258 259 260 261 262 263 264 265 266 266 266 267 267 268 268 269 269 269 268 267 267 267 267 267 266 266 266 265 265 265 264 264 263 262 262 261 261 260 260 260 260 260 261 261 261 261 262 262 261 261 261 260 260 260
232 232 233 232 232 231 228 225 222 219 217 216 218 221 225 234 243 247 246 247 250 251 251 252 254 256 258 259 261 263 265 265 264 263 263 263 265 266 266 266 268 269 270 269 267 267 267 267 268 269 269 269 269 268 268 268 268 268 267 267 266 266 266 266 265 264 263 262 262 261 261 260 260 259 260 260 261 261 262 263 263 263 263 263 262 262 261 261
230 231 233 233 233 233 231 229 226 222 220 219 220 222 224 227 231 238 244 249 251 252 254 256 257 259 261 262 264 267 268 268 268 267 267 268 269 268 267 267 269 271 272 272 272 271 271 271 270 270 270 271 271 271 272 272 272 272 270 269 268 268 268 267 267 266 266 265 264 263 262 262 261 260 260 260 261 262 263 264 264 264 264 264 263 263 263 263
229 231 232 234 234 234 234 233 231 228 225 223 223 223 225 227 230 232 234 240 245 248 251 254 257 260 263 264 266 267 268 269 271 270 271 272 270 268 267 268 268 270 270 270 271 272 272 272 272 271 271 272 273 273 274 274 274 274 273 273 272 272 272 271 271 271 270 269 268 267 266 265 264 263 262 262 262 263 264 264 264 264 264 264 264 264 264 264
228 231 233 235 236 236 235 236 235 233 231 229 227 227 227 228 232 234 234 236 239 242 245 247 250 253 257 260 262 263 263 265 267 268 270 272 272 271 271 271 271 271 272 272 273 273 272 273 273 274 274 274 275 275 275 275 274 275 275 275 276 277 277 276 276 276 276 275 275 274 273 272 271 270 269 268 267 266 266 266 265 265 265 265 265 265 265 265
228 231 235 237 239 239 239 238 238 237 236 235 233 232 231 231 233 235 237 239 240 241 244 247 248 249 252 254 256 257 257 259 260 262 265 266 268 268 269 269 269 270 270 271 272 272 272 272 273 273 274 274 275 275 275 275 275 275 275 275 276 277 277 277 277 277 277 277 277 277 277 277 276 275 275 274 273 272 271 271 270 270 270 269 268 268 268 267
229 232 236 240 243 244 244 243 241 240 239 239 238 237 236 235 235 236 238 240 242 244 245 247 248 251 253 253 255 257 257 257 258 259 261 262 263 263 263 264 264 265 266 266 267 268 268 269 269 270 270 270 271 271 272 272 272 272 272 273 273 273 273 273 273 273 273 273 274 274 274 274 274 275 275 274 274 273 273 272 272 272 272 272 272 271 271 271
231 235 240 245 249 250 249 248 247 245 244 243 242 241 240 239 238 238 239 241 243 245 246 248 249 251 253 252 255 257 258 259 260 261 262 262 262 262 262 264 264 265 266 266 266 267 267 267 268 268 268 269 269 269 270 270 270 271 271 271 271 271 271 271 271 271 271 271 271 271 271 272 272 272 272 272 272 272 272 272 272 272 272 272 272 272 272 272
232 239 245 249 251 253 255 254 253 252 250 248 247 246 244 243 243 242 243 244 245 247 249 250 251 253 254 255 255 257 258 259 260 262 263 263 263 263 263 265 266 267 268 268 268 268 268 269 269 269 270 270 270 271 271 271 271 272 272 272 272 272 273 273 272 272 272 272 272 272 272 272 273 273 273 273 273 273 273 273 273 273 273 272 272 272 272 272
235 241 247 253 257 260 261 261 260 258 256 254 253 252 250 249 248 248 248 248 249 251 252 254 255 256 258 259 259 260 261 261 262 263 264 264 264 264 265 266 267 268 269 269 269 269 270 270 270 271 271 271 271 272 272 272 273 273 273 274 274 274 274 274 275 275 274 274 274 274 274 274 274 274 274 274 274 274 274 274 274 274 273 273 273 273 272 272
238 246 253 259 264 267 267 266 265 263 261 259 258 257 256 255 254 254 254 254 254 255 256 257 259 260 261 262 263 264 264 265 265 266 266 267 267 267 267 268 269 270 270 270 271 271 271 271 272 272 272 273 273 273 273 274 274 274 274 275 275 275 275 275 275 276 276 276 276 276 276 276 276 275 275 275 274 274 274 274 274 273 273 273 273 273 273 272
242 254 264 270 272 273 271 268 267 266 265 263 263 262 262 261 260 260 259 259 260 260 261 262 262 263 264 265 265 266 267 267 268 268 268 269 269 270 270 270 271 271 272 272 273 273 273 274 274 274 274 275 275 275 275 275 275 276 276 276 276 276 276 276 276 276 276 276 276 276 276 276 276 275 275 275 275 274 274 274 274 274 273 273 273 273 273 272
248 264 274 278 278 275 272 271 270 270 270 270 269 269 268 268 267 266 266 265 265 265 265 265 265 266 267 267 268 268 268 269 269 270 270 270 271 271 272 272 273 273 274 274 274 275 275 275 276 276 276 276 277 277 277 277 276 276 276 276 276 276 276 276 276 276 276 276 276 276 276 276 276 276 276 276 275 275 275 275 275 274 274 274 274 273 273 273
254 269 277 279 278 276 276 277 279 278 278 277 276 275 274 273 273 272 271 270 269 269 269 269 268 269 269 269 270 270 271 271 271 271 272 272 272 272 273 273 274 274 275 275 275 276 276 277 277 277 277 278 278 278 278 278 278 278 278 278 278 277 277 277 277 277 277 277 277 277 277 277 277 277 277 277 277 277 277 277 276 276 276 276 275 275 275 275
260 271 275 277 277 278 282 284 285 285 284 284 282 281 281 280 278 277 276 275 274 274 273 273 273 273 273 273 273 273 273 274 274 274 274 274 274 274 274 274 275 275 275 276 276 276 277 277 278 278 278 279 279 279 279 280 280 280 279 279 279 279 279 278 278 278 278 278 278 278 278 278 278 278 278 278 278 278 278 278 278 277 277 277 277 277 277 276
262 269 273 275 277 281 285 287 288 288 290 290 289 287 285 283 283 282 282 281 281 281 280 280 279 279 278 278 278 277 277 277 276 276 276 276 276 276 276 276 276 276 276 277 277 277 278 278 279 279 280 281 281 282 282 282 282 282 281 281 281 280 280 279 279 279 279 278 278 278 278 278 278 278 278 278 278 278 278 277 277 277 277 277 276 276 276 276
263 268 271 275 281 285 288 289 292 293 294 292 290 289 288 289 290 290 290 290 290 289 288 287 286 285 283 282 281 281 280 280 279 278 278 278 277 277 277 277 277 277 277 277 278 279 279 280 280 281 282 282 282 282 283 283 282 282 282 281 281 281 280 280 280 279 279 279 279 279 279 278 279 279 279 279 279 279 278 278 278 278 277 277 277 277 277 277
263 268 273 279 285 289 292 294 295 294 292 291 291 293 295 296 297 297 297 295 294 293 292 291 290 289 288 287 285 284 283 282 282 281 281 280 280 279 279 278 278 278 279 279 280 280 281 281 281 282 282 282 282 282 283 283 283 283 283 283 283 283 283 282 282 282 282 282 282 281 281 281 281 281 281 281 281 280 280 280 279 279 279 279 278 278 278 278
266 271 279 285 290 294 296 296 294 293 293 295 297 299 300 301 300 299 298 297 296 295 294 294 293 292 291 291 290 289 288 286 285 284 283 283 282 282 282 282 282 282 282 282 283 283 283 283 283 283 284 284 285 285 286 286 286 286 286 287 286 286 286 286 285 285 285 285 285 284 284 284 283 284 284 283 283 282 282 282 281 281 281 281 281 281 281 281
272 280 288 292 295 297 297 295 295 296 298 300 302 302 302 301 301 300 300 299 299 298 298 297 296 296 295 293 292 291 290 288 287 286 286 285 285 285 285 285 286 286 286 286 287 287 287 287 288 288 288 288 288 288 288 289 289 289 289 288 288 288 288 288 288 288 287 287 287 287 287 287 287 287 286 286 285 285 284 284 283 283 283 283 283 283 283 283
282 290 294 295 297 297 296 297 298 300 302 304 305 304 303 302 302 302 302 302 302 302 301 300 300 298 296 294 293 291 290 289 289 288 288 288 288 289 289 289 289 290 290 290 290 290 290 290 290 291 290 291 291 291 291 291 290 290 290 290 290 290 290 290 290 290 290 289 289 289 289 288 288 288 287 286 286 285 285 284 284 284 283 283 283 283 284 284
289 294 294 295 296 297 298 299 301 303 306 307 306 305 305 305 305 305 305 305 305 305 304 302 301 299 296 295 294 293 292 292 292 292 292 292 292 293 293 293 292 292 293 293 293 293 293 293 293 293 293 293 293 293 292 292 292 292 292 292 292 292 291 291 291 290 290 290 289 289 288 288 287 287 286 285 285 285 284 284 284 284 284 285 285 285 285 285
291 293 293 295 297 298 300 302 305 307 307 307 307 307 308 308 308 308 308 307 307 306 305 303 301 300 298 297 297 296 296 296 296 295 295 295 295 295 296 296 296 296 296 296 296 296 296 296 295 295 294 294 294 294 295 295 295 294 294 293 293 292 292 291 291 290 289 288 288 288 287 287 287 286 286 286 286 285 285 286 286 286 286 287 287 287 287 287
290 291 293 295 297 299 302 305 307 307 308 309 310 311 311 311 310 310 310 309 308 308 306 305 303 302 301 300 300 299 299 299 298 297 297 297 297 298 299 299 299 299 299 299 298 298 297 297 296 296 296 296 297 297 297 296 296 295 294 294 293 292 292 291 290 290 289 289 288 288 289 289 288 288 288 288 287 287 287 287 287 288 288 289 290 291 292 292
289 291 293 295 298 301 304 305 307 308 311 313 314 314 313 312 311 311 311 311 310 310 308 306 305 304 303 303 302 301 300 300 299 299 300 300 300 301 301 301 302 302 301 301 300 299 299 299 299 299 299 299 299 298 298 297 297 296 295 295 294 293 293 292 292 292 291 291 291 291 291 291 290 290 289 289 289 289 289 289 290 291 293 294 295 296 297 297
288 291 293 296 301 303 304 306 309 312 314 315 315 314 314 313 313 313 313 313 312 311 309 308 307 306 305 304 303 303 302 302 302 303 303 304 304 305 305 305 304 304 303 303 302 302 302 302 303 302 302 302 301 300 300 299 299 298 297 297 296 296 295 295 294 294 294 294 293 293 292 292 291 291 291 290 290 291 292 293 295 296 298 299 299 299 299 299
287 291 295 300 302 303 305 309 312 314 316 316 315 314 314 314 315 315 316 314 313 311 311 309 308 306 305 305 304 304 306 306 307 307 308 308 308 308 307 306 306 306 306 306 306 306 306 305 305 305 305 304 304 303 302 301 301 301 300 300 299 299 299 298 297 297 296 295 294 293 293 292 292 292 293 294 294 295 297 298 299 301 301 301 301 300 300 300
288 294 299 302 303 304 308 312 315 317 317 317 316 316 316 316 317 317 317 315 314 313 311 309 307 306 305 305 304 305 307 308 309 310 310 310 309 308 307 307 307 308 308 309 308 308 308 307 307 307 307 306 306 305 305 304 304 303 303 303 302 302 302 301 300 299 298 296 296 295 295 295 295 295 296 297 298 299 300 301 301 301 301 301 300 300 299 299
291 297 301 303 305 308 312 315 317 318 318 317 317 317 318 319 319 319 317 316 314 312 310 308 308 307 306 306 306 308 310 311 312 311 310 308 307 307 307 309 311 312 312 312 311 311 310 310 310 310 309 308 308 308 307 307 306 306 306 305 305 305 305 305 304 304 304 302 301 300 299 299 298 298 298 298 299 300 300 301 301 300 300 299 299 299 298 298
295 300 302 304 308 312 316 318 319 319 318 318 319 319 320 321 320 319 317 314 312 311 310 310 309 307 307 308 310 312 313 313 313 312 310 308 309 309 311 313 314 315 315 314 313 313 313 312 312 311 311 311 310 310 310 310 310 309 309 309 309 310 311 311 312 312 312 310 308 306 303 301 300 299 298 298 299 300 301 302 302 302 301 301 300 300 299 298
298 301 304 308 313 317 319 320 320 319 319 319 320 321 321 322 320 317 315 313 312 312 311 310 309 309 310 312 314 315 314 314 312 311 310 310 312 313 314 316 316 317 316 316 316 315 315 314 314 314 314 314 313 313 314 313 313 313 313 314 315 315 316 317 317 317 317 315 312 309 307 304 303 302 300 299 300 301 302 303 303 303 303 303 302 301 301 300
301 304 309 313 317 319 320 321 320 320 320 321 322 322 322 321 318 315 315 314 314 313 311 310 311 312 314 315 316 316 315 314 312 311 311 311 313 315 316 317 317 318 318 318 318 317 317 317 317 317 316 316 317 317 317 317 317 317 317 318 318 319 319 319 319 319 319 318 314 311 308 304 305 306 303 301 302 302 302 303 303 303 303 303 303 302 302 301
305 309 313 317 319 320 321 321 321 321 322 323 323 323 322 319 317 316 317 316 314 313 312 313 314 316 317 318 318 317 315 314 313 313 313 314 316 317 317 318 319 319 320 320 320 320 321 321 320 320 319 319 320 321 321 321 321 321 321 321 321 320 320 319 319 319 319 320 317 314 311 305 304 308 305 302 303 303 304 303 303 303 303 303 303 302 302 301
309 313 316 319 320 321 321 322 322 322 323 324 323 323 321 319 318 318 318 316 315 315 315 316 317 318 319 319 318 317 316 316 315 315 315 316 318 318 319 320 321 322 323 323 323 323 323 323 323 323 322 323 323 323 323 323 324 325 324 323 321 320 319 317 318 318 318 319 318 318 315 306 304 310 308 304 304 304 304 303 303 303 303 302 302 302 301 301
313 316 318 320 321 322 323 323 323 324 324 324 323 322 321 320 319 319 318 317 317 316 317 318 319 319 320 319 319 318 318 317 317 317 318 318 319 321 323 324 325 326 326 326 326 325 326 325 325 326 326 326 326 325 325 325 327 327 325 324 321 319 318 317 318 320 319 318 316 318 317 307 304 309 308 303 305 306 304 303 303 303 302 302 301 301 301 300
316 318 320 320 322 324 324 324 324 325 325 324 324 323 321 320 319 319 319 318 318 318 319 320 320 320 320 320 320 319 319 318 318 319 319 321 323 325 327 328 328 328 328 327 328 328 328 328 329 329 329 329 328 328 329 329 329 329 327 326 324 322 322 322 324 324 323 321 318 319 319 309 305 308 307 305 307 307 304 303 303 302 302 301 301 301 301 301
318 319 321 322 324 325 325 325 325 325 325 325 325 323 320 320 321 321 320 319 319 320 320 321 321 321 321 322 321 320 320 320 320 321 323 325 327 329 330 330 330 330 330 331 332 333 334 334 334 334 333 333 333 332 333 332 332 332 331 330 329 327 327 328 329 329 328 326 323 324 324 315 311 313 314 312 312 309 306 304 303 303 302 302 302 302 301 301
319 321 322 325 326 326 326 325 325 326 327 327 325 322 321 322 322 321 321 320 321 321 321 321 322 322 322 322 321 321 322 322 323 325 327 329 331 332 331 332 332 334 335 337 339 340 340 340 340 340 340 339 338 338 338 338 338 338 337 336 335 334 334 335 337 338 335 332 330 331 332 325 321 323 323 322 320 316 313 311 308 306 305 304 303 303 302 301
321 323 325 327 327 326 326 326 327 328 328 327 324 322 322 323 322 322 322 321 321 321 321 322 322 322 323 322 323 323 324 325 326 329 331 332 333 333 334 335 338 340 342 343 345 345 346 346 346 346 346 346 345 345 345 345 345 345 344 344 343 342 342 344 345 346 344 341 339 338 340 336 332 332 332 331 330 328 324 320 316 313 311 310 309 308 306 304
323 325 327 328 327 327 328 329 329 329 328 327 324 322 323 323 323 323 322 321 321 321 321 322 322 323 323 323 325 326 327 328 330 333 334 335 335 336 338 341 344 345 346 347 348 349 350 351 352 352 352 353 352 351 351 351 350 350 350 350 349 348 347 348 351 351 350 349 345 342 346 345 340 339 339 338 337 336 333 330 327 324 322 320 318 316 313 312
325 328 329 329 329 329 329 329 329 329 329 327 323 322 323 324 324 322 320 320 321 321 321 322 323 323 324 325 327 328 330 332 334 335 337 337 338 340 343 345 347 348 349 350 351 351 352 353 355 356 357 357 357 357 356 355 354 354 354 354 354 353 351 350 352 353 353 353 349 346 348 350 346 345 345 343 343 343 341 338 336 334 332 329 325 322 321 321
328 329 330 330 329 329 329 330 331 331 329 326 323 324 325 324 323 321 320 321 321 321 321 322 323 323 325 327 328 330 332 334 336 338 339 340 342 344 346 346 348 349 351 353 353 353 354 354 355 357 358 358 358 359 358 357 356 356 357 357 356 356 354 351 351 354 355 355 353 349 349 352 351 349 348 346 346 346 345 343 341 340 339 334 330 327 326 326
329 330 330 330 330 330 331 332 333 332 329 326 325 325 324 323 322 321 321 321 320 320 321 322 323 323 325 327 329 331 334 337 339 340 341 342 344 345 345 346 348 350 351 352 354 354 355 355 355 356 358 358 358 359 360 358 357 357 357 357 357 356 356 352 350 353 356 355 354 352 350 350 352 351 348 347 347 347 346 344 343 343 341 337 333 331 329 328
330 331 331 331 331 332 332 333 334 333 329 325 324 324 324 323 322 321 321 320 320 320 320 321 322 323 325 327 330 333 335 338 340 341 342 344 344 344 344 345 347 348 350 352 354 355 356 356 355 355 356 358 357 357 359 360 358 357 357 357 357 356 356 354 350 350 356 356 353 353 351 349 350 351 349 347 346 346 346 344 343 343 342 339 336 333 331 330
332 332 332 332 332 333 333 334 335 333 328 324 324 324 324 324 322 321 320 320 319 319 319 321 322 323 325 327 330 333 336 338 340 341 342 343 343 343 344 345 346 348 350 352 354 355 355 356 356 354 354 356 356 355 355 357 358 358 356 355 356 355 354 353 348 348 354 356 352 351 351 349 348 349 348 347 346 346 345 343 343 343 343 340 338 335 333 331
333 333 333 333 333 334 335 335 335 333 327 324 325 325 325 324 322 321 320 319 319 318 319 320 321 322 325 326 330 333 336 337 339 340 341 341 342 342 344 345 346 348 350 351 352 354 354 354 355 354 353 354 355 353 352 353 355 356 354 353 353 353 352 350 346 344 350 355 351 349 349 348 347 347 347 346 345 344 344 342 342 343 343 341 339 336 333 332
333 333 333 333 334 335 336 337 336 332 328 326 326 326 325 324 322 321 320 319 318 317 319 320 320 322 324 325 328 331 334 336 337 338 339 340 340 341 343 346 346 347 348 349 350 352 352 352 353 354 352 351 353 352 349 348 350 353 353 351 350 350 349 348 344 341 346 352 350 347 347 347 347 346 345 345 343 343 343 341 341 343 343 341 339 337 334 333
333 334 334 334 335 336 337 338 337 333 329 327 327 326 325 324 322 321 320 320 318 317 318 319 319 321 322 323 326 329 331 333 335 336 337 338 340 340 342 344 346 346 346 347 347 348 350 350 350 352 351 349 350 350 348 345 346 350 350 349 348 348 347 347 342 338 343 349 347 345 345 345 345 345 344 344 342 342 342 340 340 342 342 340 339 337 335 333
Height
10694 10695 10696 10697 10698 10699 10700 10701 10703 10704 10705 10706 10707 10709 10710 10711 10712 10713 10712 10712 10713 10711 10710 10709 10710 10713 10715 10715 10716 10716 10716 10716 10715 10715 10715 10716 10716 10716 10716 10716 10716 10715 10714 10714 10713 10713 10712 10713 10712 10712 10712 10711 10711 10710 10710 10711 10711 10710 10711 10713 10713 10712 10710 10708 10710 10711 10709 10709 10708 10706 10705 10704 10704 10703 10702 10701 10699 10697 10697 10697 10696 10695 10695 10695 10694 10693 10692 10692
10693 10694 10695 10696 10697 10697 10698 10699 10701 10703 10705 10705 10705 10706 10707 10708 10709 10710 10710 10710 10710 10709 10708 10707 10707 10710 10712 10713 10714 10714 10714 10714 10713 10713 10712 10712 10712 10713 10713 10712 10712 10711 10711 10710 10709 10708 10708 10707 10707 10707 10707 10706 10706 10705 10705 10706 10705 10705 10706 10707 10707 10705 10703 10702 10703 10703 10703 10702 10701 10700 10699 10698 10697 10696 10695 10694 10692 10690 10690 10689 10689 10688 10688 10688 10687 10687 10686 10685
10691 10692 10693 10694 10695 10696 10696 10698 10699 10701 10703 10704 10704 10704 10704 10705 10706 10707 10707 10707 10708 10707 10707 10707 10706 10707 10708 10709 10711 10711 10711 10711 10711 10711 10710 10710 10709 10708 10708 10708 10708 10707 10706 10705 10704 10703 10703 10702 10701 10701 10701 10701 10701 10701 10701 10701 10700 10700 10701 10701 10699 10697 10697 10696 10696 10696 10696 10695 10694 10693 10691 10690 10689 10688 10687 10686 10685 10683 10682 10681 10680 10680 10680 10680 10680 10680 10679 10678
10690 10691 10691 10692 10693 10694 10695 10696 10698 10699 10701 10702 10702 10703 10702 10702 10703 10704 10704 10705 10706 10706 10706 10706 10705 10705 10705 10705 10706 10707 10708 10708 10708 10708 10707 10707 10706 10705 10704 10704 10703 10702 10702 10701 10700 10698 10697 10696 10695 10695 10694 10694 10694 10695 10696 10695 10695 10695 10695 10694 10692 10690 10690 10690 10689 10688 10688 10687 10686 10684 10683 10682 10680 10679 10678 10677 10676 10675 10673 10672 10672 10672 10672 10672 10671 10671 10670 10669
10688 10689 10689 10690 10691 10692 10694 10694 10696 10697 10699 10700 10700 10701 10701 10700 10701 10701 10702 10702 10703 10704 10704 10704 10704 10704 10703 10702 10703 10703 10704 10704 10704 10703 10703 10703 10702 10701 10701 10700 10698 10698 10697 10696 10695 10694 10692 10691 10690 10689 10688 10687 10687 10688 10689 10690 10689 10689 10689 10687 10685 10684 10683 10683 10681 10680 10679 10678 10677 10676 10675 10673 10672 10671 10669 10668 10667 10666 10665 10664 10664 10663 10662 10662 10661 10660 10660 10659
10686 10687 10687 10688 10689 10690 10692 10693 10694 10695 10696 10697 10698 10698 10699 10699 10699 10699 10699 10700 10700 10701 10701 10701 10701 10701 10700 10700 10699 10699 10700 10700 10699 10699 10698 10698 10697 10697 10696 10694 10693 10692 10691 10691 10689 10688 10686 10685 10684 10683 10682 10680 10680 10682 10683 10683 10683 10682 10681 10680 10678 10677 10676 10674 10673 10671 10670 10669 10668 10668 10667 10665 10663 10662 10660 10660 10659 10659 10658 10656 10655 10654 10653 10651 10650 10649 10648 10647
10685 10685 10686 10687 10688 10689 10689 10690 10691 10693 10693 10694 10695 10696 10696 10697 10698 10698 10698 10698 10698 10698 10698 10698 10698 10697 10697 10697 10696 10695 10695 10694 10693 10693 10693 10693 10692 10692 10691 10690 10688 10687 10686 10684 10683 10681 10681 10679 10678 10677 10676 10674 10674 10676 10677 10677 10676 10673 10673 10672 10671 10669 10668 10666 10665 10663 10661 10660 10659 10658 10657 10656 10654 10653 10652 10652 10652 10651 10650 10649 10646 10644 10642 10640 10639 10637 10636 10636
10683 10684 10684 10685 10686 10687 10688 10688 10689 10690 10691 10692 10692 10693 10694 10694 10695 10696 10696 10696 10696 10696 10696 10695 10695 10694 10693 10693 10692 10692 10691 10690 10689 10688 10688 10687 10687 10686 10686 10685 10684 10683 10681 10679 10677 10676 10675 10673 10672 10671 10670 10669 10669 10671 10670 10669 10668 10666 10664 10664 10663 10661 10660 10659 10657 10655 10653 10651 10650 10648 10647 10646 10645 10644 10644 10644 10644 10643 10641 10639 10636 10633 10631 10630 10628 10627 10626 10625
10682 10683 10683 10684 10685 10686 10686 10687 10687 10688 10689 10689 10690 10690 10691 10692 10693 10693 10694 10694 10693 10693 10693 10693 10693 10692 10691 10690 10689 10688 10687 10686 10685 10684 10683 10682 10681 10680 10680 10679 10678 10677 10675 10673 10671 10670 10668 10666 10665 10664 10664 10664 10664 10664 10663 10661 10660 10659 10657 10656 10655 10654 10652 10651 10648 10647 10644 10641 10639 10637 10636 10635 10634 10634 10635 10635 10634 10633 10630 10627 10625 10623 10621 10620 10618 10617 10616 10615
10681 10682 10683 10683 10684 10684 10685 10685 10686 10686 10687 10687 10688 10688 10689 10690 10690 10690 10690 10690 10690 10690 10690 10690 10689 10689 10688 10687 10686 10685 10684 10683 10682 10680 10680 10678 10677 10676 10675 10674 10673 10671 10669 10667 10665 10663 10661 10659 10658 10657 10657 10657 10657 10656 10655 10653 10652 10651 10649 10648 10647 10646 10644 10642 10640 10638 10635 10632 10630 10628 10626 10624 10623 10624 10625 10624 10622 10620 10617 10615 10613 10611 10610 10609 10608 10606 10605 10603
10680 10681 10682 10682 10682 10683 10683 10684 10684 10685 10685 10685 10686 10686 10687 10687 10687 10687 10687 10687 10686 10686 10686 10686 10685 10685 10684 10683 10682 10681 10680 10679 10678 10677 10676 10675 10674 10673 10671 10670 10669 10667 10664 10663 10660 10658 10656 10654 10652 10651 10651 10651 10651 10650 10648 10646 10645 10644 10642 10641 10640 10638 10635 10633 10632 10629 10626 10624 10622 10619 10617 10614 10614 10615 10614 10612 10609 10607 10605 10603 10601 10600 10599 10597 10596 10594 10592 10589
10679 10680 10680 10681 10681 10681 10682 10682 10682 10682 10683 10683 10683 10683 10684 10684 10684 10684 10684 10683 10683 10682 10682 10681 10681 10680 10680 10679 10678 10677 10675 10674 10673 10672 10671 10670 10669 10667 10666 10665 10663 10661 10659 10656 10655 10653 10650 10647 10646 10645 10644 10644 10645 10643 10641 10639 10639 10637 10635 10633 10632 10629 10627 10625 10623 10620 10618 10616 10613 10609 10606 10604 10605 10605 10602 10599 10597 10594 10592 10591 10590 10589 10587 10585 10583 10580 10577 10575
10678 10679 10679 10680 10680 10680 10680 10680 10681 10681 10681 10681 10681 10680 10680 10680 10680 10680 10680 10680 10679 10679 10678 10677 10677 10676 10675 10674 10673 10672 10671 10669 10668 10667 10665 10664 10663 10661 10660 10658 10656 10654 10652 10650 10647 10645 10643 10640 10638 10637 10636 10637 10637 10635 10633 10631 10631 10629 10627 10624 10622 10619 10617 10615 10612 10609 10607 10605 10602 10598 10595 10594 10595 10593 10589 10587 10584 10582 10580 10578 10577 10575 10573 10570 10568 10565 10563 10560
10677 10678 10678 10678 10679 10679 10679 10679 10679 10679 10679 10678 10678 10678 10677 10677 10677 10677 10677 10676 10675 10675 10674 10673 10672 10671 10670 10669 10668 10667 10666 10664 10663 10661 10659 10658 10657 10656 10654 10652 10650 10647 10645 10643 10640 10638 10635 10632 10630 10628 10628 10628 10628 10627 10624 10622 10621 10620 10617 10615 10612 10610 10607 10604 10601 10598 10595 10592 10589 10586 10582 10582 10582 10579 10576 10574 10571 10569 10567 10565 10563 10560 10558 10555 10552 10550 10547 10545
10676 10677 10677 10677 10677 10677 10677 10677 10677 10677 10676 10676 10675 10675 10674 10674 10674 10673 10673 10672 10672 10671 10670 10669 10668 10667 10665 10664 10663 10661 10660 10658 10657 10655 10653 10651 10650 10649 10648 10645 10643 10640 10638 10635 10633 10630 10627 10625 10622 10620 10619 10618 10618 10617 10615 10614 10612 10610 10607 10605 10602 10599 10597 10593 10590 10586 10582 10579 10576 10573 10570 10569 10568 10565 10562 10560 10558 10556 10554 10552 10549 10546 10544 10541 10538 10535 10532 10530
10675 10676 10676 10676 10676 10676 10676 10675 10675 10674 10674 10673 10673 10672 10671 10671 10670 10670 10669 10669 10668 10667 10666 10665 10663 10662 10661 10659 10657 10656 10654 10652 10651 10649 10647 10645 10643 10642 10640 10638 10635 10633 10630 10627 10625 10622 10619 10617 10614 10611 10609 10608 10608 10607 10606 10605 10603 10600 10597 10594 10592 10589 10586 10583 10580 10576 10572 10568 10565 10563 10559 10557 10555 10551 10549 10547 10545 10543 10541 10539 10536 10534 10531 10528 10525 10522 10519 10516
10674 10675 10675 10675 10675 10674 10674 10674 10673 10672 10672 10671 10671 10670 10669 10668 10667 10667 10666 10665 10664 10663 10661 10660 10659 10657 10655 10653 10652 10650 10648 10646 10644 10643 10640 10639 10637 10635 10632 10630 10627 10625 10622 10620 10617 10614 10611 10608 10605 10602 10600 10598 10597 10596 10595 10594 10593 10590 10587 10584 10582 10579 10576 10573 10570 10566 10562 10559 10555 10553 10550 10546 10543 10540 10538 10536 10534 10532 10529 10527 10524 10522 10519 10515 10512 10509 10506 10503
10673 10674 10674 10673 10673 10673 10672 10672 10671 10670 10670 10669 10669 10667 10666 10665 10664 10663 10662 10661 10660 10659 10657 10655 10654 10653 10651 10648 10646 10644 10642 10640 10638 10636 10634 10632 10630 10628 10626 10623 10620 10618 10615 10612 10609 10607 10604 10601 10598 10594 10591 10589 10588 10587 10585 10584 10583 10580 10578 10575 10572 10570 10567 10564 10560 10557 10553 10550 10547 10544 10541 10537 10533 10531 10528 10526 10523 10521 10519 10516 10513 10510 10507 10504 10501 10497 10494 10491
10672 10672 10672 10672 10671 10671 10670 10670 10669 10668 10668 10667 10666 10665 10664 10662 10661 10660 10659 10658 10656 10655 10653 10651 10650 10648 10646 10644 10641 10639 10637 10635 10632 10630 10628 10625 10623 10621 10619 10616 10614 10611 10609 10605 10602 10600 10597 10594 10591 10587 10584 10581 10580 10578 10577 10575 10574 10571 10569 10566 10563 10560 10558 10555 10552 10549 10545 10542 10538 10536 10533 10529 10525 10522 10519 10517 10515 10512 10509 10506 10502 10499 10496 10493 10489 10486 10483 10479
10671 10671 10670 10670 10669 10669 10668 10668 10667 10666 10665 10664 10663 10662 10661 10660 10659 10657 10656 10655 10653 10651 10649 10647 10645 10643 10641 10639 10637 10634 10632 10629 10627 10624 10622 10619 10617 10615 10612 10610 10607 10605 10602 10599 10596 10593 10590 10588 10585 10582 10579 10576 10573 10571 10569 10567 10566 10563 10561 10558 10555 10552 10550 10547 10544 10542 10538 10534 10531 10528 10525 10521 10517 10514 10511 10509 10506 10503 10500 10496 10493 10490 10486 10483 10479 10476 10472 10468
10670 10669 10669 10668 10668 10667 10667 10666 10665 10664 10663 10662 10661 10660 10659 10657 10656 10655 10653 10651 10649 10647 10645 10643 10641 10638 10636 10634 10632 10629 10626 10623 10621 10618 10615 10613 10610 10608 10606 10603 10601 10599 10596 10593 10590 10587 10585 10582 10579 10577 10574 10571 10568 10566 10563 10561 10559 10557 10554 10551 10548 10545 10542 10539 10537 10534 10530 10526 10523 10520 10517 10513 10509 10506 10503 10500 10498 10494 10490 10486 10483 10479 10476 10472 10469 10465 10461 10458
10668 10668 10667 10667 10666 10665 10664 10664 10663 10662 10661 10660 10659 10658 10656 10655 10653 10651 10650 10648 10646 10643 10641 10639 10636 10633 10630 10628 10625 10623 10620 10617 10615 10612 10609 10607 10604 10602 10600 10597 10595 10593 10591 10588 10585 10583 10580 10578 10575 10572 10569 10566 10564 10561 10558 10555 10553 10550 10547 10544 10540 10537 10534 10531 10528 10525 10521 10518 10514 10511 10508 10504 10501 10497 10494 10491 10488 10484 10479 10476 10472 10468 10464 10461 10458 10454 10450 10447
10667 10666 10666 10665 10664 10663 10663 10662 10661 10660 10659 10658 10657 10656 10654 10652 10650 10648 10646 10644 10641 10639 10636 10634 10631 10628 10625 10622 10618 10616 10613 10611 10608 10606 10603 10601 10599 10596 10594 10592 10590 10588 10586 10584 10581 10578 10576 10573 10570 10567 10564 10561 10558 10555 10552 10549 10547 10544 10540 10536 10533 10529 10526 10523 10520 10516 10513 10509 10505 10501 10498 10494 10492 10488 10485 10481 10477 10473 10469 10465 10461 10457 10454 10450 10446 10443 10439 10435
10665 10665 10664 10663 10662 10662 10661 10660 10659 10658 10657 10656 10655 10653 10651 10649 10647 10645 10642 10640 10637 10634 10631 10628 10625 10622 10619 10616 10613 10610 10607 10605 10603 10600 10598 10596 10594 10592 10590 10588 10585 10583 10581 10579 10576 10573 10570 10567 10564 10561 10558 10555 10552 10550 10547 10544 10541 10537 10534 10530 10526 10522 10519 10515 10512 10508 10504 10500 10496 10492 10488 10484 10482 10479 10475 10470 10465 10462 10459 10454 10450 10447 10443 10439 10435 10431 10427 10424
10663 10663 10662 10661 10661 10660 10659 10658 10657 10656 10655 10654 10653 10651 10649 10646 10644 10641 10638 10635 10632 10629 10626 10623 10620 10616 10613 10610 10608 10606 10603 10600 10598 10596 10594 10592 10590 10588 10586 10583 10581 10579 10576 10574 10571 10569 10566 10563 10559 10556 10553 10550 10547 10544 10541 10538 10535 10531 10527 10524 10520 10516 10512 10508 10504 10500 10496 10491 10487 10484 10479 10474 10472 10470 10464 10459 10455 10452 10449 10444 10440 10436 10432 10428 10424 10421 10417 10413
10662 10661 10660 10660 10659 10658 10658 10657 10655 10654 10653 10651 10650 10648 10645 10643 10640 10637 10634 10631 10627 10624 10621 10617 10614 10611 10608 10606 10603 10601 10599 10596 10594 10592 10590 10588 10586 10584 10581 10579 10577 10575 10572 10570 10567 10564 10561 10558 10555 10551 10548 10545 10542 10538 10535 10532 10528 10525 10520 10517 10513 10509 10505 10501 10497 10493 10488 10483 10478 10475 10471 10465 10461 10460 10454 10449 10446 10442 10438 10435 10430 10426 10422 10418 10415 10411 10407 10403
10661 10660 10659 10658 10658 10657 10656 10655 10653 10652 10650 10648 10646 10644 10641 10639 10636 10633 10629 10626 10623 10619 10616 10612 10609 10606 10604 10601 10599 10597 10595 10592 10590 10588 10586 10584 10582 10580 10578 10575 10573 10571 10568 10565 10562 10559 10556 10553 10550 10547 10543 10540 10536 10533 10529 10526 10522 10518 10514 10510 10506 10502 10497 10493 10490 10486 10481 10476 10470 10466 10462 10456 10451 10449 10444 10440 10437 10432 10428 10425 10421 10417 10413 10409 10405 10401 10396 10392
10659 10659 10658 10657 10656 10655 10654 10653 10651 10649 10648 10645 10643 10640 10637 10634 10631 10628 10625 10621 10618 10614 10611 10608 10605 10602 10600 10597 10595 10593 10591 10589 10587 10585 10583 10581 10579 10577 10574 10571 10569 10566 10564 10561 10558 10555 10552 10549 10546 10542 10538 10535 10531 10527 10523 10520 10517 10512 10508 10504 10499 10494 10490 10485 10481 10477 10472 10467 10461 10457 10453 10446 10441 10439 10434 10430 10427 10423 10420 10416 10412 10408 10404 10399 10395 10391 10386 10380
10658 10658 10657 10656 10655 10654 10652 10651 10649 10647 10644 10642 10639 10636 10633 10630 10627 10624 10620 10616 10613 10610 10606 10604 10601 10599 10596 10594 10591 10589 10588 10586 10584 10582 10580 10578 10575 10573 10571 10568 10565 10563 10560 10557 10554 10551 10547 10544 10540 10537 10533 10529 10526 10522 10518 10514 10510 10506 10501 10496 10491 10486 10481 10476 10471 10467 10462 10456 10451 10448 10444 10438 10431 10429 10426 10422 10418 10415 10412 10408 10404 10400 10395 10390 10385 10380 10375 10370
10657 10657 10656 10655 10654 10652 10650 10649 10646 10644 10641 10638 10636 10633 10629 10626 10623 10619 10616 10612 10608 10605 10603 10600 10597 10595 10593 10590 10588 10586 10584 10583 10581 10579 10576 10574 10572 10569 10567 10564 10562 10559 10556 10553 10549 10546 10542 10538 10535 10531 10527 10523 10519 10515 10511 10507 10502 10498 10493 10487 10482 10477 10472 10467 10462 10457 10453 10447 10442 10439 10437 10431 10425 10421 10418 10414 10411 10407 10404 10400 10395 10391 10386 10382 10377 10371 10366 10361
10656 10655 10654 10653 10652 10650 10649 10646 10644 10641 10638 10635 10632 10629 10626 10622 10619 10615 10611 10608 10605 10602 10599 10597 10594 10592 10590 10588 10585 10583 10581 10579 10577 10575 10572 10570 10568 10565 10563 10560 10558 10555 10551 10548 10545 10541 10537 10533 10529 10525 10521 10517 10512 10508 10503 10499 10494 10489 10484 10478 10473 10468 10462 10458 10453 10448 10444 10440 10435 10431 10429 10426 10420 10415 10410 10406 10403 10399 10396 10392 10386 10382 10377 10372 10368 10363 10358 10353
10655 10654 10653 10652 10650 10649 10646 10644 10641 10638 10635 10632 10629 10625 10622 10618 10615 10611 10607 10604 10601 10599 10596 10594 10592 10589 10587 10585 10583 10581 10579 10576 10574 10571 10569 10566 10564 10562 10559 10557 10554 10551 10548 10544 10540 10536 10532 10528 10524 10519 10515 10510 10505 10500 10495 10490 10485 10480 10475 10470 10464 10459 10454 10449 10445 10441 10436 10432 10428 10424 10421 10418 10414 10409 10404 10399 10394 10391 10387 10384 10379 10374 10369 10364 10360 10356 10351 10345
10654 10653 10651 10650 10648 10646 10644 10641 10638 10635 10632 10629 10625 10622 10618 10615 10611 10607 10604 10601 10598 10596 10594 10592 10589 10587 10585 10583 10581 10579 10576 10574 10571 10569 10566 10564 10562 10559 10556 10553 10550 10547 10543 10539 10535 10531 10527 10523 10518 10513 10508 10502 10497 10492 10487 10482 10477 10472 10467 10462 10457 10452 10447 10442 10437 10432 10426 10421 10418 10415 10412 10409 10406 10401 10396 10392 10388 10383 10379 10377 10373 10368 10363 10358 10353 10348 10343 10337
10652 10651 10650 10648 10646 10644 10641 10638 10635 10632 10629 10625 10622 10618 10615 10611 10607 10604 10601 10598 10596 10593 10591 10589 10587 10585 10583 10580 10578 10576 10573 10571 10568 10566 10563 10560 10558 10555 10552 10549 10545 10542 10538 10534 10530 10526 10522 10517 10512 10507 10501 10496 10490 10485 10480 10474 10469 10464 10459 10453 10448 10443 10439 10434 10429 10424 10418 10410 10405 10402 10400 10400 10400 10395 10389 10386 10382 10376 10371 10367 10364 10360 10355 10350 10344 10340 10335 10329
10651 10650 10648 10646 10643 10641 10638 10635 10632 10629 10626 10622 10619 10615 10611 10608 10604 10601 10598 10596 10593 10591 10588 10586 10584 10583 10581 10578 10576 10573 10570 10568 10565 10563 10560 10557 10554 10551 10548 10544 10541 10537 10533 10529 10525 10521 10516 10511 10506 10500 10495 10489 10484 10479 10473 10468 10462 10457 10452 10446 10441 10436 10432 10427 10423 10418 10414 10407 10397 10392 10388 10386 10390 10390 10382 10379 10376 10369 10363 10359 10355 10350 10346 10341 10335 10330 10326 10320
10649 10648 10646 10644 10641 10638 10636 10632 10629 10626 10623 10619 10615 10612 10608 10604 10601 10598 10596 10593 10590 10588 10586 10584 10582 10580 10578 10575 10573 10570 10568 10565 10563 10560 10557 10554 10551 10548 10544 10540 10536 10533 10528 10524 10520 10515 10510 10505 10500 10495 10489 10484 10478 10473 10468 10462 10456 10451 10446 10441 10436 10431 10427 10422 10419 10414 10410 10406 10396 10388 10381 10374 10378 10383 10376 10370 10370 10363 10357 10352 10347 10343 10338 10332 10327 10321 10317 10310
10648 10646 10644 10641 10639 10636 10633 10630 10626 10623 10619 10616 10612 10608 10604 10601 10598 10595 10593 10590 10588 10586 10584 10581 10579 10577 10575 10572 10570 10567 10565 10562 10559 10557 10554 10551 10548 10544 10540 10537 10532 10528 10524 10519 10514 10509 10504 10499 10494 10488 10483 10478 10473 10468 10463 10457 10452 10447 10441 10437 10431 10426 10422 10417 10415 10410 10406 10404 10397 10388 10379 10366 10368 10378 10371 10363 10362 10357 10349 10344 10339 10334 10329 10324 10318 10312 10307 10301
10646 10644 10642 10639 10637 10634 10630 10627 10623 10620 10616 10613 10609 10605 10601 10598 10595 10592 10590 10588 10586 10583 10581 10579 10576 10574 10572 10569 10567 10564 10561 10559 10556 10553 10550 10547 10544 10540 10537 10533 10528 10523 10518 10513 10508 10503 10498 10493 10488 10483 10477 10473 10468 10463 10458 10452 10448 10443 10438 10434 10428 10423 10418 10412 10410 10407 10403 10401 10396 10390 10379 10360 10359 10372 10366 10356 10355 10351 10343 10336 10330 10326 10320 10315 10311 10304 10299 10293
10644 10642 10640 10637 10634 10631 10628 10624 10620 10617 10613 10609 10606 10602 10598 10595 10592 10590 10588 10585 10583 10581 10579 10577 10574 10572 10569 10566 10564 10561 10558 10556 10553 10550 10547 10544 10540 10536 10532 10528 10523 10518 10512 10507 10502 10497 10493 10487 10483 10478 10472 10467 10462 10457 10453 10448 10444 10440 10434 10430 10424 10419 10415 10409 10405 10403 10399 10397 10393 10391 10381 10356 10352 10366 10361 10351 10350 10345 10338 10330 10323 10318 10312 10307 10302 10296 10290 10284
10643 10640 10638 10635 10632 10628 10625 10621 10617 10614 10610 10606 10602 10598 10595 10592 10590 10588 10585 10583 10581 10578 10576 10574 10572 10569 10567 10564 10561 10558 10555 10553 10550 10547 10543 10540 10536 10532 10527 10522 10517 10512 10507 10502 10498 10493 10488 10483 10478 10473 10467 10462 10457 10452 10448 10443 10439 10435 10430 10426 10420 10415 10411 10406 10401 10397 10394 10391 10387 10388 10381 10354 10344 10357 10356 10348 10346 10340 10332 10326 10318 10311 10305 10299 10294 10288 10282 10276
10641 10638 10635 10632 10629 10625 10622 10618 10615 10611 10607 10603 10599 10595 10592 10590 10587 10585 10583 10580 10578 10576 10574 10572 10569 10567 10564 10561 10558 10556 10553 10550 10547 10544 10540 10536 10532 10527 10523 10518 10513 10508 10502 10498 10493 10488 10483 10478 10473 10468 10463 10457 10452 10448 10444 10439 10435 10430 10426 10421 10416 10411 10407 10402 10399 10393 10387 10384 10379 10380 10377 10354 10339 10345 10347 10341 10338 10332 10325 10320 10313 10305 10298 10292 10287 10280 10274 10267
10639 10636 10633 10629 10626 10622 10619 10615 10612 10608 10604 10600 10596 10593 10590 10587 10585 10582 10580 10578 10576 10574 10571 10569 10567 10564 10562 10559 10556 10553 10550 10547 10544 10541 10537 10532 10528 10523 10518 10514 10509 10503 10498 10494 10489 10484 10479 10474 10469 10464 10459 10454 10449 10444 10439 10435 10430 10426 10422 10417 10412 10407 10403 10398 10395 10390 10383 10378 10374 10373 10371 10355 10341 10340 10338 10333 10328 10322 10316 10312 10306 10299 10291 10285 10279 10272 10266 10259
10636 10633 10630 10626 10623 10619 10616 10612 10608 10604 10600 10597 10593 10590 10587 10585 10582 10580 10578 10575 10573 10571 10569 10567 10564 10562 10559 10556 10553 10550 10547 10544 10541 10537 10533 10529 10524 10519 10514 10510 10505 10499 10494 10490 10485 10481 10476 10471 10466 10461 10456 10452 10446 10441 10437 10432 10427 10423 10418 10414 10409 10404 10399 10395 10391 10387 10380 10373 10369 10369 10366 10354 10343 10338 10333 10327 10322 10315 10308 10303 10298 10292 10285 10277 10271 10263 10256 10250
10634 10631 10627 10624 10620 10616 10612 10609 10605 10601 10597 10594 10590 10587 10585 10582 10580 10577 10575 10573 10571 10569 10566 10564 10562 10559 10556 10553 10551 10548 10545 10541 10538 10534 10530 10525 10521 10516 10511 10506 10501 10496 10491 10487 10482 10478 10474 10470 10465 10459 10454 10449 10444 10439 10434 10429 10425 10420 10415 10411 10405 10400 10395 10392 10387 10383 10377 10370 10363 10361 10360 10350 10339 10333 10328 10322 10317 10310 10301 10295 10289 10284 10277 10270 10262 10254 10247 10240
10631 10628 10624 10621 10617 10613 10610 10606 10603 10599 10594 10591 10588 10585 10582 10580 10577 10575 10573 10571 10569 10566 10564 10562 10559 10556 10554 10551 10548 10545 10542 10539 10535 10531 10527 10522 10517 10513 10508 10503 10499 10494 10489 10484 10480 10476 10472 10467 10463 10459 10453 10448 10443 10437 10431 10426 10422 10417 10412 10407 10402 10396 10390 10387 10384 10379 10374 10368 10358 10352 10352 10347 10335 10326 10320 10314 10308 10303 10294 10286 10279 10274 10268 10261 10253 10245 10237 10230
10628 10625 10621 10618 10614 10611 10607 10604 10600 10595 10591 10588 10585 10583 10580 10577 10575 10573 10571 10568 10566 10564 10562 10559 10556 10554 10551 10548 10545 10542 10539 10536 10532 10528 10524 10519 10515 10510 10506 10501 10497 10492 10488 10483 10478 10473 10468 10464 10460 10456 10451 10446 10441 10436 10431 10425 10419 10414 10409 10404 10399 10394 10387 10381 10378 10374 10368 10364 10356 10346 10341 10340 10333 10322 10314 10306 10299 10293 10285 10277 10270 10264 10258 10251 10243 10235 10227 10220
10626 10623 10619 10616 10612 10608 10604 10600 10596 10592 10589 10586 10583 10580 10577 10575 10572 10570 10568 10566 10564 10561 10559 10556 10554 10551 10548 10545 10542 10540 10537 10533 10529 10525 10521 10516 10512 10508 10504 10500 10495 10491 10486 10481 10476 10471 10466 10460 10455 10452 10448 10443 10438 10434 10428 10423 10417 10411 10405 10400 10394 10389 10384 10376 10370 10367 10362 10357 10351 10342 10333 10329 10326 10319 10309 10301 10294 10287 10278 10270 10263 10257 10250 10242 10234 10227 10219 10211
10624 10620 10617 10613 10609 10605 10602 10598 10594 10590 10586 10583 10581 10578 10575 10573 10570 10568 10566 10563 10561 10559 10556 10554 10551 10548 10545 10543 10540 10537 10533 10530 10527 10523 10518 10514 10510 10506 10502 10498 10493 10489 10484 10479 10475 10469 10464 10458 10452 10446 10442 10438 10433 10428 10424 10418 10412 10406 10401 10396 10390 10383 10377 10371 10363 10359 10355 10349 10343 10338 10329 10320 10315 10312 10304 10294 10286 10280 10272 10263 10256 10250 10243 10234 10226 10218 10210 10203
10621 10617 10614 10610 10607 10603 10599 10595 10591 10587 10584 10581 10579 10576 10573 10570 10568 10565 10563 10561 10558 10556 10554 10551 10548 10545 10542 10540 10537 10534 10530 10527 10523 10520 10516 10512 10508 10504 10499 10495 10491 10486 10482 10477 10472 10467 10462 10457 10450 10443 10437 10432 10427 10422 10418 10413 10408 10402 10395 10390 10385 10378 10371 10365 10357 10351 10348 10343 10336 10331 10325 10316 10306 10301 10296 10288 10279 10271 10264 10256 10249 10242 10234 10226 10218 10210 10202 10195
10618 10615 10611 10608 10604 10601 10597 10593 10589 10585 10582 10579 10576 10573 10571 10568 10565 10563 10560 10558 10556 10553 10551 10548 10545 10542 10539 10536 10534 10531 10528 10524 10521 10517 10514 10510 10506 10502 10497 10492 10488 10483 10479 10474 10469 10465 10460 10455 10450 10443 10436 10430 10424 10417 10412 10407 10402 10397 10391 10384 10378 10373 10366 10358 10351 10344 10341 10337 10330 10323 10318 10312 10303 10293 10287 10280 10272 10264 10256 10248 10241 10234 10226 10218 10210 10202 10194 10186
10616 10613 10609 10606 10602 10598 10594 10590 10586 10583 10579 10576 10573 10570 10568 10565 10563 10560 10558 10555 10553 10550 10548 10545 10542 10539 10536 10533 10530 10527 10525 10521 10518 10515 10511 10508 10504 10499 10495 10490 10485 10480 10476 10471 10466 10462 10458 10453 10448 10443 10436 10429 10423 10417 10409 10403 10398 10393 10389 10382 10375 10369 10362 10354 10345 10337 10333 10330 10325 10317 10310 10305 10298 10291 10283 10275 10267 10259 10251 10241 10234 10228 10219 10210 10203 10194 10186 10177
10614 10610 10607 10603 10600 10596 10592 10588 10584 10580 10577 10574 10571 10568 10565 10562 10560 10557 10555 10552 10550 10547 10545 10542 10539 10536 10533 10530 10527 10524 10521 10518 10515 10511 10508 10505 10501 10496 10492 10488 10483 10478 10473 10468 10463 10459 10455 10450 10445 10441 10435 10428 10422 10417 10409 10402 10397 10392 10386 10380 10373 10366 10359 10352 10341 10332 10327 10325 10319 10312 10305 10298 10292 10286 10279 10272 10263 10254 10245 10235 10226 10221 10213 10204 10195 10186 10178 10169